Quillayute, WA
on Saturday, January 19, 2013

Saturday
Previous Day Next Day
Daily Summary
 ActualAverageRecord
Temperature
Mean Temperature °F / °C 42°F / 6°C  
Max Temperature 56°F / 13°C 47°F / 8°C 62°F / 16°C (1981)
Min Temperature 25°F / -4°C 36°F / 2°C 18°F / -7°C (1984)
Degree Days
Heating Degree Days 24 23  
Month to date heating degree days 449  
Since 1 July heating degree days 2927  
Cooling Degree Days 0 0  
Month to date cooling degree days 0  
Year to date cooling degree days 0  
Moisture
Dew Point 31°F / -1°C   
Average Humidity 87    
Maximum Humidity 100    
Minimum Humidity 50    
Precipitation
Precipitation 0.00 in / 0.00 cm 0.48 in / 12.19 cm 3.26 in / 8.28 cm (1968)
Month to date precipitation 9.24  
Year to date precipitation 9.24  
Wind
Wind Speed 2 mph / 3 km/h   
Max Wind Speed 7 mph / 11 km/h   
Max Gust Speed 13 mph / 21 km/h   
Visibility 4 miles / 6 kilometers   
Events     

Key: T is trace of precipitation, MM is missing value
Source: NWS Daily Summary
Time(PST)TemperatureDew PointHumidity Pressure Visibility Wind DirectionWind SpeedGust SpeedPrecipitationEvents Conditions
12:01 AM 28.4°F / -2.0°C 28.4°F / -2.0°C 100% 30.27 in / 1024.9 hPa 2.0 miles / 3.2 kilometers Calm Calm - N/A   Clear
12:07 AM 28.4°F / -2.0°C 28.4°F / -2.0°C 100% 30.27 in / 1024.9 hPa 0.8 miles / 1.2 kilometers Calm Calm - N/A   Clear
12:17 AM 28.4°F / -2.0°C 26.6°F / -3.0°C 93% 30.27 in / 1024.9 hPa 1.5 miles / 2.4 kilometers Calm Calm - N/A   Clear
12:24 AM 28.4°F / -2.0°C 28.4°F / -2.0°C 100% 30.27 in / 1024.9 hPa 2.5 miles / 4.0 kilometers Calm Calm - N/A   Clear
12:39 AM 28.4°F / -2.0°C 26.6°F / -3.0°C 93% 30.27 in / 1024.9 hPa 1.8 miles / 2.8 kilometers Calm Calm - N/A   Clear
12:49 AM 28.4°F / -2.0°C 26.6°F / -3.0°C 93% 30.27 in / 1024.9 hPa 2.5 miles / 4.0 kilometers Calm Calm - N/A   Clear
12:53 AM 28.9°F / -1.7°C 28.0°F / -2.2°C 96% 30.28 in / 1025.3 hPa 1.8 miles / 2.8 kilometers Calm Calm - N/A   Clear
1:01 AM 28.4°F / -2.0°C 28.4°F / -2.0°C 100% 30.27 in / 1024.9 hPa 1.2 miles / 2.0 kilometers Calm Calm - N/A   Clear
1:05 AM 28.4°F / -2.0°C 26.6°F / -3.0°C 93% 30.27 in / 1024.9 hPa 2.5 miles / 4.0 kilometers Calm Calm - N/A   Clear
1:29 AM 28.4°F / -2.0°C 26.6°F / -3.0°C 93% 30.27 in / 1024.9 hPa 4.0 miles / 6.4 kilometers Calm Calm - N/A   Clear
1:53 AM 28.0°F / -2.2°C 27.0°F / -2.8°C 96% 30.28 in / 1025.3 hPa 4.0 miles / 6.4 kilometers Calm Calm - N/A   Clear
2:53 AM 30.0°F / -1.1°C 28.9°F / -1.7°C 96% 30.29 in / 1025.6 hPa 5.0 miles / 8.0 kilometers Calm Calm - N/A   Clear
3:53 AM 30.0°F / -1.1°C 28.0°F / -2.2°C 92% 30.28 in / 1025.3 hPa 5.0 miles / 8.0 kilometers Calm Calm - N/A   Clear
4:53 AM 28.0°F / -2.2°C 27.0°F / -2.8°C 96% 30.28 in / 1025.2 hPa 4.0 miles / 6.4 kilometers North 3.5 mph / 5.6 km/h - N/A   Clear
5:53 AM 28.0°F / -2.2°C 27.0°F / -2.8°C 96% 30.27 in / 1025.1 hPa 5.0 miles / 8.0 kilometers Calm Calm - N/A   Clear
6:53 AM 30.0°F / -1.1°C 28.9°F / -1.7°C 96% 30.27 in / 1025.1 hPa 5.0 miles / 8.0 kilometers Calm Calm - N/A   Clear
7:51 AM 26.6°F / -3.0°C 24.8°F / -4.0°C 93% 30.27 in / 1024.9 hPa 2.0 miles / 3.2 kilometers Calm Calm - N/A   Clear
7:53 AM 26.1°F / -3.3°C 24.1°F / -4.4°C 92% 30.28 in / 1025.2 hPa 2.0 miles / 3.2 kilometers Calm Calm - N/A   Clear
8:25 AM 28.4°F / -2.0°C 26.6°F / -3.0°C 93% 30.28 in / 1025.3 hPa 3.0 miles / 4.8 kilometers Calm Calm - N/A   Clear
8:53 AM 30.0°F / -1.1°C 28.9°F / -1.7°C 96% 30.29 in / 1025.7 hPa 4.0 miles / 6.4 kilometers Calm Calm - N/A   Clear
9:53 AM 37.0°F / 2.8°C 33.1°F / 0.6°C 86% 30.31 in / 1026.2 hPa 4.0 miles / 6.4 kilometers Calm Calm - N/A   Clear
10:53 AM 43.0°F / 6.1°C 36.0°F / 2.2°C 76% 30.31 in / 1026.2 hPa 5.0 miles / 8.0 kilometers Calm Calm - N/A   Haze
11:53 AM 46.9°F / 8.3°C 36.0°F / 2.2°C 66% 30.29 in / 1025.6 hPa 5.0 miles / 8.0 kilometers North 3.5 mph / 5.6 km/h - N/A   Haze
12:53 PM 50.0°F / 10.0°C 37.0°F / 2.8°C 61% 30.27 in / 1025.1 hPa 5.0 miles / 8.0 kilometers NNE 3.5 mph / 5.6 km/h - N/A   Haze
1:53 PM 54.0°F / 12.2°C 39.0°F / 3.9°C 57% 30.27 in / 1024.8 hPa 5.0 miles / 8.0 kilometers North 4.6 mph / 7.4 km/h - N/A   Haze
2:53 PM 55.9°F / 13.3°C 39.0°F / 3.9°C 53% 30.26 in / 1024.6 hPa 5.0 miles / 8.0 kilometers NNE 3.5 mph / 5.6 km/h - N/A   Haze
3:53 PM 53.1°F / 11.7°C 39.9°F / 4.4°C 61% 30.26 in / 1024.7 hPa 5.0 miles / 8.0 kilometers NNE 5.8 mph / 9.3 km/h - N/A   Haze
4:53 PM 46.0°F / 7.8°C 39.0°F / 3.9°C 76% 30.27 in / 1025.1 hPa 4.0 miles / 6.4 kilometers Calm Calm - N/A   Haze
5:53 PM 39.0°F / 3.9°C 37.0°F / 2.8°C 93% 30.29 in / 1025.5 hPa 6.0 miles / 9.7 kilometers Calm Calm - N/A   Clear
6:53 PM 37.0°F / 2.8°C 33.1°F / 0.6°C 86% 30.29 in / 1025.7 hPa 5.0 miles / 8.0 kilometers East 4.6 mph / 7.4 km/h - N/A   Clear
7:53 PM 37.9°F / 3.3°C 33.1°F / 0.6°C 83% 30.30 in / 1026.0 hPa 6.0 miles / 9.7 kilometers East 4.6 mph / 7.4 km/h - N/A   Haze
8:53 PM 36.0°F / 2.2°C 33.1°F / 0.6°C 89% 30.31 in / 1026.4 hPa 6.0 miles / 9.7 kilometers Calm Calm - N/A   Clear
9:53 PM 36.0°F / 2.2°C 33.1°F / 0.6°C 89% 30.32 in / 1026.5 hPa 5.0 miles / 8.0 kilometers East 5.8 mph / 9.3 km/h - N/A   Clear
10:53 PM 30.0°F / -1.1°C 28.9°F / -1.7°C 96% 30.32 in / 1026.8 hPa 5.0 miles / 8.0 kilometers Calm Calm - N/A   Clear
11:53 PM 30.0°F / -1.1°C 28.0°F / -2.2°C 92% 30.34 in / 1027.3 hPa 5.0 miles / 8.0 kilometers North 3.5 mph / 5.6 km/h - N/A   Clear
Moon Phase
Jan. 19 Jan. 26 Feb. 03 Feb. 10 Feb. 17
Sunrise:07:59 AM (PST) Moon Rise:11:33 AM (PST)1/19
Sunset:04:59 PM (PST) Moon Set:01:33 AM (PST)1/19

Copyright © 2014 The Weather Underground, Inc.